Location: Cerroniocc
(13.7547°S, 72.0222°W)
Time: 19:45:54
(UTC+00:00)

Meteor 1-22 Rocket - Pass Details

Date: 05 July 2020
Orbit: 787 x 941 km, 81.2° (Epoch: 11 August)

Event Time Altitude Azimuth Distance (km) Brightness Sun altitude
Rises 22:48:38 0° 359° (N) 3,280 7.6 -4.3°
Reaches altitude 10° 22:50:58 10° 0° (N) 2,368 6.9 -4.8°
Maximum altitude 22:56:17 76° 85° (E) 848 4.1 -6.0°
Drops below altitude 10° 23:01:52 10° 170° (S) 2,475 6.3 -7.3°
Sets 23:04:21 0° 172° (S) 3,440 7.1 -7.8°
